PBO Station Position Time Series. Reference Frame : NAM14
Format Version,1.1.0
4-character ID,ELMA
Station name,ElMadronoNIC2016
Begin Date, 2016-05-01
End Date, 2019-09-17
Release Date, 2019-10-05
Reference position, 12.4658352559 North Latitude, -86.6747497764 East Longitude, 445.19015 meters elevation,
Date, North (mm), East (mm), Vertical (mm), North Std. Deviation (mm), East Std. Deviation (mm),              Vertical Std. Deviation (mm), Quality,
2016-05-01,0.00, 0.00, 0.00, 1.68, 1.97, 8.02, repro,
2016-05-02,3.33, -0.59, -6.07, 1.70, 1.93, 8.10, repro,
2016-05-03,0.46, -4.58, -22.32, 1.71, 2.03, 8.32, repro,
2016-05-04,2.23, -5.77, -34.15, 1.64, 1.92, 7.93, repro,
2016-05-05,3.02, -2.09, -11.27, 1.67, 1.93, 7.95, repro,
2016-05-06,5.60, -4.16, -34.27, 1.94, 2.18, 9.48, repro,
2016-05-07,2.43, 1.42, -17.05, 1.65, 1.89, 7.84, repro,
2016-05-08,3.49, -3.30, -16.49, 1.68, 1.92, 8.03, repro,
2016-05-09,3.93, -3.36, -15.46, 1.58, 1.85, 7.66, repro,
2016-05-10,4.04, -2.86, -14.52, 1.64, 1.91, 7.80, repro,
2016-05-11,3.09, -9.28, -19.38, 1.59, 1.85, 7.64, repro,
2016-05-12,4.34, -10.61, -23.66, 1.61, 1.87, 7.72, repro,
2016-05-13,2.44, -8.84, -17.50, 1.61, 1.84, 7.71, repro,
2016-05-14,3.19, -8.29, -18.65, 1.61, 1.83, 7.63, repro,
2016-05-15,4.51, -10.29, -23.77, 1.62, 1.89, 7.87, repro,
2016-05-16,3.57, -6.74, -21.28, 1.73, 1.92, 8.36, repro,
2016-05-17,3.67, -8.09, -12.77, 1.61, 1.85, 7.67, repro,
2016-05-18,5.16, -2.83, -13.61, 1.66, 1.89, 8.03, repro,
2016-05-19,4.29, -5.85, -11.61, 1.67, 1.94, 8.07, repro,
2016-05-20,5.55, -5.12, -26.21, 1.64, 1.88, 7.96, repro,
2016-05-21,7.35, -6.68, -22.96, 1.63, 1.88, 7.90, repro,
2016-05-22,6.31, -7.71, -5.04, 1.72, 2.06, 8.38, repro,
2016-05-23,4.78, -6.30, -12.15, 1.61, 1.85, 7.79, repro,
2016-05-24,2.52, -7.24, -18.12, 1.79, 2.06, 8.85, repro,
2016-05-25,-0.40, -8.54, -20.03, 1.61, 1.85, 7.78, repro,
2016-05-26,0.98, -5.29, -6.66, 1.65, 1.91, 7.91, repro,
2016-05-27,2.55, -3.31, -7.73, 1.80, 2.22, 8.79, repro,
2016-05-28,5.57, -7.28, -6.30, 1.70, 1.96, 8.27, repro,
2016-05-29,3.93, -5.06, -9.42, 1.60, 1.85, 7.73, repro,
2016-05-30,4.51, -5.55, 4.23, 1.67, 1.88, 8.02, repro,
2016-05-31,1.83, -3.56, -12.45, 1.74, 1.98, 8.29, repro,
2016-06-01,3.00, -6.23, -7.10, 1.63, 1.87, 7.91, repro,
2016-06-02,2.44, -5.30, -16.27, 1.61, 1.86, 7.77, repro,
2016-06-03,1.08, -2.05, 1.71, 1.69, 1.95, 7.99, repro,
2016-06-04,5.01, -4.92, 4.21, 1.78, 2.01, 8.69, repro,
2016-06-05,3.26, -5.19, -24.51, 1.60, 1.85, 7.66, repro,
2016-06-06,3.29, -5.32, -20.43, 1.60, 1.81, 7.59, repro,
2016-06-07,1.31, -6.41, -19.76, 1.59, 1.81, 7.51, repro,
2016-06-08,2.86, -4.97, -16.12, 1.60, 1.85, 7.60, repro,
2016-06-09,4.58, -2.96, -25.20, 1.63, 1.87, 7.71, repro,
2016-06-10,6.25, -5.50, -24.58, 1.63, 1.87, 7.80, repro,
2016-06-11,7.55, -8.42, -15.90, 1.60, 1.80, 7.56, repro,
2016-06-12,5.37, -7.83, -33.75, 1.61, 1.81, 7.59, repro,
2016-06-13,4.96, -7.10, -24.67, 1.61, 1.83, 7.64, repro,
2016-06-14,7.28, -5.57, -7.46, 1.61, 1.84, 7.66, repro,
2016-06-15,4.42, -5.52, -16.10, 1.61, 1.85, 7.67, repro,
2016-06-16,6.68, -7.18, -19.90, 1.60, 1.81, 7.58, repro,
2016-06-17,7.00, -7.55, -20.31, 1.65, 1.93, 7.91, repro,
2016-06-18,7.88, -5.84, -28.18, 1.63, 1.90, 7.73, repro,
2016-06-19,8.44, -6.13, -14.24, 1.61, 1.83, 7.66, repro,
2016-06-20,9.47, -4.46, -1.79, 1.60, 1.89, 7.67, repro,
2016-06-21,9.68, -8.32, -14.57, 1.67, 1.96, 8.03, repro,
2016-06-22,7.40, -6.75, -24.75, 1.60, 1.81, 7.58, repro,
2016-06-23,8.12, -5.50, -20.75, 1.62, 1.84, 7.66, repro,
2016-06-24,13.33, -3.99, -33.35, 1.67, 1.90, 8.06, repro,
2016-06-25,11.26, -6.16, -10.03, 1.65, 1.93, 7.88, repro,
2016-06-26,7.66, -6.73, -23.23, 1.66, 1.95, 7.89, repro,
2016-06-27,12.32, -9.03, -21.77, 1.60, 1.85, 7.65, repro,
2016-06-28,10.78, -7.02, -19.52, 1.59, 1.84, 7.61, repro,
2016-06-29,10.20, -9.10, -23.55, 1.62, 1.87, 7.76, repro,
2016-06-30,10.69, -8.08, -12.16, 1.61, 1.88, 7.73, repro,
2016-07-01,9.42, -3.47, -1.71, 1.73, 2.04, 8.33, repro,
2016-07-02,12.33, -10.50, -40.93, 1.68, 1.93, 8.13, repro,
2016-07-03,9.91, -8.70, -27.29, 1.69, 1.95, 8.16, repro,
2016-07-04,9.88, -8.78, -24.99, 1.65, 1.96, 8.02, repro,
2016-07-05,9.76, -10.04, -18.26, 1.64, 1.88, 7.89, repro,
2016-07-06,12.45, -7.15, -21.07, 1.67, 1.91, 7.97, repro,
2016-07-07,11.07, -6.70, -25.98, 1.71, 1.89, 8.04, repro,
2016-07-08,10.98, -6.69, -19.32, 1.65, 1.85, 7.88, repro,
2016-07-09,10.00, -5.34, -23.74, 1.62, 1.87, 7.74, repro,
2016-07-10,13.51, -6.56, -22.45, 1.61, 1.81, 7.62, repro,
2016-07-11,11.77, -8.16, -15.21, 1.63, 1.87, 7.77, repro,
2016-07-12,6.62, -5.97, -31.85, 1.63, 1.86, 7.76, repro,
2016-07-13,10.98, -10.81, -34.63, 1.63, 1.84, 7.84, repro,
2016-07-14,8.09, -9.90, -20.98, 1.62, 1.83, 7.71, repro,
2016-07-15,12.33, -5.58, -15.12, 1.61, 1.87, 7.79, repro,
2016-07-16,10.48, -6.62, -42.05, 1.64, 1.88, 7.90, repro,
2016-07-17,11.13, -9.01, -29.94, 1.62, 1.86, 7.81, repro,
2016-07-18,11.67, -3.85, -20.82, 1.62, 1.86, 7.79, repro,
2016-07-19,8.14, -4.16, -34.75, 1.60, 1.84, 7.79, repro,
2016-07-20,9.16, -6.75, -18.85, 1.64, 1.79, 7.84, repro,
2016-07-21,12.97, -9.42, -41.35, 1.61, 1.81, 7.64, repro,
2016-07-22,9.95, -6.12, -11.09, 1.67, 1.84, 8.05, repro,
2016-07-23,11.42, -3.80, -11.34, 1.60, 1.84, 7.63, repro,
2016-07-24,11.56, -7.19, -18.81, 1.60, 1.85, 7.70, repro,
2016-07-25,10.86, -7.86, -15.45, 1.60, 1.84, 7.71, repro,
2016-07-26,10.01, -8.98, -29.75, 1.67, 1.87, 7.89, repro,
2016-07-27,12.23, -5.55, -10.69, 1.69, 1.93, 8.10, repro,
2016-07-28,10.35, -9.98, -23.72, 1.63, 1.83, 7.78, repro,
2016-07-29,11.96, -7.30, -14.96, 1.70, 1.94, 8.05, repro,
2016-07-30,9.72, -2.37, -8.36, 1.64, 1.84, 7.84, repro,
2016-07-31,13.11, -10.10, -39.15, 1.61, 1.85, 7.76, repro,
2016-08-01,11.17, -7.30, -19.08, 1.61, 1.86, 7.70, repro,
2016-08-02,9.62, -6.69, -18.58, 1.59, 1.86, 7.66, repro,
2016-08-03,8.12, -7.07, -33.61, 1.64, 1.86, 7.81, repro,
2016-08-04,8.42, -3.88, -5.67, 1.62, 1.85, 7.71, repro,
2016-08-05,9.29, -4.47, -20.87, 1.59, 1.77, 7.50, repro,
2016-08-06,10.43, -4.55, -14.69, 1.61, 1.80, 7.67, repro,
2016-08-07,9.95, -6.01, -0.54, 1.64, 1.85, 7.83, repro,
2016-08-08,10.83, -1.95, -20.47, 1.65, 1.84, 7.80, repro,
2016-08-09,11.85, -4.35, -19.20, 1.60, 1.81, 7.64, repro,
2016-08-10,11.45, -8.88, -36.23, 1.64, 1.88, 7.90, repro,
2016-08-11,12.97, -9.59, -15.10, 1.63, 1.84, 7.83, repro,
2016-08-12,9.83, -8.11, -33.93, 1.62, 1.81, 7.69, repro,
2016-08-13,8.31, -5.71, -33.26, 1.60, 1.81, 7.70, repro,
2016-08-14,8.39, -6.78, -29.50, 1.66, 1.83, 7.80, repro,
2016-08-15,13.87, -5.54, -21.46, 1.60, 1.79, 7.56, repro,
2016-08-16,10.46, -7.87, -29.40, 1.67, 1.85, 8.00, repro,
2016-08-17,13.90, -10.74, -17.16, 1.61, 1.85, 7.70, repro,
2016-08-18,12.65, -6.51, -26.47, 1.62, 1.86, 7.85, repro,
2016-08-19,11.47, -8.20, -21.69, 1.67, 1.95, 8.01, repro,
2016-08-20,12.35, -5.24, -33.60, 1.63, 1.87, 7.85, repro,
2016-08-21,11.27, -7.97, -30.52, 1.61, 1.83, 7.66, repro,
2016-08-22,13.55, -9.49, -32.35, 1.63, 1.81, 7.67, repro,
2016-08-23,12.44, -11.91, -15.19, 1.65, 1.86, 7.85, repro,
2016-08-24,6.51, -13.52, -17.91, 1.60, 1.78, 7.61, repro,
2016-08-25,8.16, -13.14, -24.96, 1.63, 1.82, 7.81, repro,
2016-08-26,3.99, -13.12, -17.07, 1.71, 1.84, 8.22, repro,
2016-08-27,9.74, -14.22, -44.86, 1.65, 1.88, 7.83, repro,
2016-08-28,5.86, -9.14, -25.40, 1.61, 1.79, 7.64, repro,
2016-08-29,10.31, -6.22, -9.05, 1.75, 2.03, 8.26, repro,
2016-08-30,6.94, -10.22, -27.65, 1.62, 1.82, 7.68, repro,
2016-08-31,10.13, -11.00, -13.70, 1.64, 1.83, 7.82, repro,
2016-09-01,11.78, -7.64, -8.16, 1.68, 1.82, 7.89, repro,
2016-09-02,7.03, -11.44, -11.96, 1.64, 1.88, 7.87, repro,
2016-09-03,7.88, -13.40, -20.93, 1.60, 1.82, 7.66, repro,
2016-09-04,9.65, -11.78, -12.51, 1.63, 1.86, 7.81, repro,
2016-09-05,10.05, -12.43, -12.46, 1.65, 1.88, 7.92, repro,
2016-09-06,11.45, -9.92, -31.57, 1.62, 1.83, 7.69, repro,
2016-09-07,10.10, -12.61, -12.13, 1.67, 1.84, 8.04, repro,
2016-09-08,7.33, -10.53, -21.77, 1.71, 1.90, 8.49, repro,
2016-09-09,9.31, -13.12, -23.87, 1.65, 1.82, 7.87, repro,
2016-09-10,10.50, -10.64, -15.33, 1.65, 1.90, 7.95, repro,
2016-09-11,6.67, -16.26, -24.21, 1.64, 1.80, 7.64, repro,
2016-09-12,6.26, -17.83, 3.90, 1.66, 1.88, 8.01, repro,
2016-09-13,7.72, -13.21, -9.98, 1.62, 1.81, 7.71, repro,
2016-09-14,7.82, -13.56, -20.01, 1.65, 1.81, 7.89, repro,
2016-09-15,-27.19, -21.63, -41.32, 1.67, 1.94, 8.09, repro,
2016-09-16,-32.55, -25.64, -36.55, 1.68, 1.96, 8.07, repro,
2016-09-17,-31.69, -27.28, -41.33, 1.63, 1.81, 7.80, repro,
2016-09-18,-31.24, -26.13, -29.84, 1.63, 1.90, 7.90, repro,
2016-09-19,-32.62, -20.85, -38.01, 1.61, 1.85, 7.81, repro,
2016-09-20,-32.97, -23.48, -37.48, 1.69, 1.91, 8.17, repro,
2016-09-21,-37.01, -29.02, -36.98, 1.62, 1.83, 7.74, repro,
2016-09-22,-36.11, -25.89, -33.87, 1.76, 1.98, 8.34, repro,
2016-09-23,-36.07, -22.34, -38.01, 1.73, 1.95, 8.52, repro,
2016-09-24,-33.05, -26.75, -29.81, 1.68, 1.87, 8.00, repro,
2016-09-25,-33.48, -26.10, -34.17, 1.73, 1.92, 8.23, repro,
2016-09-26,-35.24, -26.05, -29.09, 1.66, 1.89, 8.02, repro,
2016-09-27,-30.89, -25.00, -28.67, 1.66, 1.85, 7.88, repro,
2016-09-28,-36.59, -27.94, -27.17, 1.67, 1.90, 8.01, repro,
2016-09-29,-38.31, -22.50, -47.41, 1.64, 1.86, 7.78, repro,
2016-09-30,-39.25, -19.75, -27.15, 1.68, 1.92, 8.10, repro,
2016-10-01,-41.41, -18.25, -37.06, 1.69, 1.85, 7.94, repro,
2016-10-02,-43.12, -12.81, -38.58, 1.71, 1.90, 8.21, repro,
2016-10-03,-42.67, -17.25, -46.25, 1.69, 1.91, 8.04, repro,
2016-10-04,-41.55, -19.24, -43.95, 1.70, 1.91, 8.13, repro,
2016-10-05,-41.21, -19.12, -42.66, 1.70, 1.87, 8.05, repro,
2016-10-06,-41.32, -20.97, -32.04, 1.71, 1.88, 8.19, repro,
2016-10-07,-40.49, -19.79, -39.99, 1.67, 1.91, 8.14, repro,
2016-10-08,-41.66, -19.44, -43.30, 1.68, 1.89, 8.04, repro,
2016-10-09,-40.47, -20.00, -39.02, 1.65, 1.90, 7.99, repro,
2016-10-10,-39.97, -18.25, -39.22, 1.63, 1.85, 7.78, repro,
2016-10-11,-39.09, -19.33, -47.91, 1.80, 2.04, 8.62, repro,
2016-10-12,-39.10, -15.38, -38.82, 1.67, 1.85, 7.84, repro,
2016-10-13,-43.37, -17.81, -41.92, 1.76, 2.01, 8.37, repro,
2016-10-14,-39.94, -17.59, -43.54, 1.73, 1.86, 8.06, repro,
2016-10-15,-41.41, -18.10, -36.38, 1.64, 1.84, 7.85, repro,
2016-10-16,-41.36, -17.14, -32.88, 1.65, 1.86, 7.87, repro,
2016-10-17,-42.01, -18.82, -34.59, 1.68, 1.86, 8.07, repro,
2016-10-18,-42.24, -21.11, -43.53, 1.67, 1.82, 7.96, repro,
2016-10-19,-42.82, -17.95, -45.68, 1.69, 1.85, 8.06, repro,
2016-10-20,-42.05, -15.51, -38.00, 1.63, 1.83, 7.83, repro,
2016-10-21,-44.23, -18.00, -46.89, 1.65, 1.81, 7.78, repro,
2016-10-22,-42.89, -16.81, -52.74, 1.64, 1.84, 7.77, repro,
2016-10-23,-42.84, -18.89, -52.03, 1.63, 1.82, 7.76, repro,
2016-10-24,-40.04, -18.32, -36.50, 1.62, 1.83, 7.73, repro,
2016-10-25,-41.67, -16.00, -44.28, 1.68, 1.88, 8.00, repro,
2016-10-26,-41.83, -12.92, -45.86, 1.68, 1.90, 8.06, repro,
2016-10-27,-41.03, -16.24, -39.69, 1.66, 1.83, 7.81, repro,
2016-10-28,-42.76, -14.03, -37.34, 1.64, 1.85, 7.80, repro,
2016-10-29,-42.46, -15.14, -41.55, 1.69, 1.95, 8.04, repro,
2016-10-30,-43.75, -17.56, -44.75, 1.67, 1.85, 7.87, repro,
2016-10-31,-41.42, -18.00, -51.72, 1.73, 1.93, 8.38, repro,
2016-11-01,-40.63, -16.33, -44.31, 1.68, 1.85, 8.07, repro,
2016-11-02,-43.07, -18.00, -47.98, 1.77, 2.05, 8.53, repro,
2016-11-03,-43.40, -15.74, -48.32, 1.67, 1.82, 7.88, repro,
2016-11-04,-42.00, -17.68, -53.01, 1.66, 1.83, 7.82, repro,
2016-11-05,-43.68, -15.64, -58.12, 1.65, 1.86, 7.85, repro,
2016-11-06,-40.34, -19.06, -57.73, 1.62, 1.85, 7.79, repro,
2016-11-07,-42.91, -14.60, -47.44, 1.63, 1.84, 7.75, repro,
2016-11-08,-42.20, -19.40, -47.12, 1.62, 1.83, 7.74, repro,
2016-11-09,-40.96, -15.02, -42.78, 1.64, 1.85, 7.85, repro,
2016-11-10,-40.99, -17.49, -50.67, 1.67, 1.86, 8.01, repro,
2016-11-11,-40.80, -16.83, -49.20, 1.64, 1.89, 7.88, repro,
2016-11-12,-41.41, -15.60, -51.61, 1.63, 1.84, 7.82, repro,
2016-11-13,-40.61, -19.44, -50.62, 1.63, 1.84, 7.82, repro,
2016-11-14,-41.87, -17.52, -39.19, 1.63, 1.84, 7.77, repro,
2016-11-15,-44.10, -18.92, -41.28, 1.67, 1.84, 7.91, repro,
2016-11-16,-39.77, -16.78, -37.66, 1.66, 1.85, 7.91, repro,
2016-11-17,-41.41, -18.01, -37.25, 1.65, 1.84, 7.86, repro,
2016-11-18,-40.71, -18.91, -52.04, 1.71, 1.92, 8.16, repro,
2016-11-19,-37.44, -19.24, -44.89, 1.69, 1.82, 8.16, repro,
2016-11-20,-38.14, -20.57, -40.47, 1.63, 1.81, 7.71, repro,
2016-11-21,-36.46, -18.75, -47.94, 1.64, 1.86, 7.85, repro,
2016-11-22,-41.77, -19.12, -54.18, 1.64, 1.86, 7.87, repro,
2016-11-23,-41.79, -16.80, -45.02, 1.62, 1.83, 7.69, repro,
2016-11-24,-38.99, -18.94, -51.45, 1.64, 1.85, 7.81, repro,
2016-11-25,-40.65, -19.46, -43.60, 1.63, 1.85, 7.80, repro,
2016-11-26,-41.30, -18.20, -40.81, 1.79, 2.02, 8.50, repro,
2016-11-27,-38.10, -16.99, -54.82, 1.65, 1.89, 7.87, repro,
2016-11-28,-40.47, -16.18, -39.87, 1.62, 1.84, 7.69, repro,
2016-11-29,-39.50, -15.61, -38.56, 1.62, 1.82, 7.70, repro,
2016-11-30,-41.48, -13.68, -40.40, 1.68, 1.96, 7.97, repro,
2016-12-01,-41.84, -16.11, -43.49, 1.68, 1.83, 7.80, repro,
2016-12-02,-40.56, -16.61, -51.77, 1.67, 1.83, 7.83, repro,
2016-12-03,-40.38, -15.28, -41.80, 1.64, 1.84, 7.78, repro,
2016-12-04,-40.97, -14.81, -50.09, 1.64, 1.84, 7.80, repro,
2016-12-05,-40.39, -14.20, -32.94, 1.69, 1.88, 8.00, repro,
2016-12-06,-40.62, -17.42, -48.18, 1.69, 1.83, 8.17, repro,
2016-12-07,-39.34, -15.20, -37.61, 1.65, 1.86, 7.89, repro,
2016-12-08,-40.99, -12.60, -43.17, 1.66, 1.85, 7.85, repro,
2016-12-09,-38.24, -16.23, -49.70, 1.68, 1.87, 7.88, repro,
2016-12-10,-38.65, -18.28, -52.12, 1.65, 1.83, 7.80, repro,
2016-12-11,-38.84, -20.25, -43.56, 1.66, 1.83, 7.91, repro,
2016-12-12,-39.55, -16.88, -52.58, 1.63, 1.83, 7.72, repro,
2016-12-13,-38.99, -17.16, -50.68, 1.65, 1.86, 7.86, repro,
2016-12-14,-36.79, -17.26, -49.39, 1.66, 1.84, 7.89, repro,
2016-12-15,-37.71, -13.59, -44.12, 1.68, 1.89, 8.04, repro,
2016-12-16,-34.32, -19.68, -51.84, 1.66, 1.83, 7.84, repro,
2016-12-17,-38.28, -16.61, -48.54, 1.63, 1.83, 7.77, repro,
2016-12-18,-35.92, -24.42, -61.55, 1.68, 1.88, 8.02, repro,
2016-12-19,-36.56, -24.09, -19.53, 1.72, 2.01, 8.34, repro,
2016-12-20,-39.22, -24.22, -40.74, 1.70, 1.92, 8.26, repro,
2016-12-21,-37.50, -17.15, -62.95, 1.69, 1.91, 8.04, repro,
2016-12-22,-35.40, -19.95, -56.19, 1.68, 1.84, 7.94, repro,
2016-12-23,-37.60, -17.61, -51.11, 1.65, 1.84, 7.85, repro,
2016-12-24,-38.63, -18.85, -54.01, 1.62, 1.84, 7.70, repro,
2016-12-25,-38.79, -16.25, -58.47, 1.63, 1.82, 7.74, repro,
2016-12-26,-38.41, -20.49, -57.72, 1.64, 1.83, 7.79, repro,
2016-12-27,-36.89, -19.86, -57.07, 1.66, 1.89, 7.93, repro,
2016-12-28,-33.06, -23.14, -52.79, 1.63, 1.87, 7.81, repro,
2016-12-29,-36.76, -20.65, -55.83, 1.66, 1.88, 7.89, repro,
2016-12-30,-37.28, -16.87, -58.35, 1.65, 1.90, 7.96, repro,
2016-12-31,-37.31, -14.43, -46.41, 1.63, 1.81, 7.72, repro,
2017-01-01,-35.34, -19.72, -49.66, 1.65, 1.83, 7.82, repro,
2017-01-02,-35.23, -17.95, -38.00, 1.62, 1.87, 7.74, repro,
2017-01-03,-31.70, -18.23, -33.54, 1.67, 1.94, 8.03, repro,
2017-01-04,-37.05, -18.72, -49.39, 1.64, 1.85, 7.76, repro,
2017-01-05,-38.43, -17.49, -40.63, 1.65, 1.82, 7.82, repro,
2017-01-06,-40.12, -19.52, -50.41, 1.62, 1.86, 7.81, repro,
2017-01-07,-36.48, -15.15, -54.70, 1.66, 1.89, 7.99, repro,
2017-01-08,-38.34, -20.86, -46.92, 1.64, 1.91, 7.97, repro,
2017-01-09,-37.20, -22.90, -42.82, 1.63, 1.87, 7.83, repro,
2017-01-10,-35.99, -21.94, -58.13, 1.66, 1.92, 7.99, repro,
2017-01-11,-33.40, -21.18, -62.91, 1.61, 1.84, 7.68, repro,
2017-01-12,-33.58, -18.44, -51.50, 1.62, 1.84, 7.74, repro,
2017-01-13,-32.19, -19.68, -35.66, 1.61, 1.84, 7.71, repro,
2017-01-14,-32.44, -22.08, -43.62, 1.62, 1.84, 7.77, repro,
2017-01-15,-33.69, -22.94, -57.88, 1.63, 1.80, 7.68, repro,
2017-01-16,-34.75, -19.34, -45.60, 1.63, 1.87, 7.81, repro,
2017-01-17,-33.93, -19.48, -36.29, 1.65, 1.88, 7.90, repro,
2017-01-18,-37.38, -20.38, -49.84, 1.69, 1.94, 8.08, repro,
2017-01-19,-36.47, -19.37, -28.50, 1.69, 1.87, 8.08, repro,
2017-01-20,-37.60, -16.64, -38.72, 1.61, 1.82, 7.60, repro,
2017-01-21,-38.28, -15.37, -34.13, 1.61, 1.84, 7.70, repro,
2017-01-22,-36.76, -15.96, -41.00, 1.61, 1.85, 7.72, repro,
2017-01-23,-37.69, -18.30, -41.92, 1.62, 1.85, 7.71, repro,
2017-01-24,-34.08, -15.83, -30.46, 1.62, 1.87, 7.74, repro,
2017-01-25,-36.94, -15.37, -36.68, 1.66, 1.88, 7.87, repro,
2017-01-26,-35.06, -16.47, -24.81, 1.64, 1.85, 7.80, repro,
2017-01-27,-35.37, -19.79, -42.38, 1.62, 1.84, 7.68, repro,
2017-01-28,-33.08, -17.48, -46.69, 1.65, 1.85, 7.84, repro,
2017-01-29,-31.71, -17.73, -42.95, 1.59, 1.84, 7.63, repro,
2017-01-30,-34.60, -19.72, -36.32, 1.62, 1.84, 7.69, repro,
2017-01-31,-31.04, -11.60, -27.02, 1.62, 1.83, 7.66, repro,
2017-02-01,-34.85, -17.55, -40.47, 1.61, 1.85, 7.67, repro,
2017-02-02,-32.77, -14.31, -48.77, 1.63, 1.88, 7.85, repro,
2017-02-03,-35.55, -25.23, -48.13, 1.63, 1.88, 7.82, repro,
2017-02-04,-34.96, -22.45, -39.90, 1.62, 1.86, 7.76, repro,
2017-02-05,-37.04, -26.06, -46.85, 1.63, 1.86, 7.70, repro,
2017-02-06,-36.69, -23.36, -46.76, 1.64, 1.86, 7.76, repro,
2017-02-07,-34.48, -22.54, -50.39, 1.64, 1.90, 7.85, repro,
2017-02-08,-35.36, -17.30, -52.50, 1.61, 1.85, 7.60, repro,
2017-02-09,-36.78, -15.28, -40.00, 1.64, 1.86, 7.73, repro,
2017-02-10,-32.13, -18.45, -39.56, 1.66, 1.88, 7.86, repro,
2017-02-11,-35.11, -19.81, -39.43, 1.66, 1.89, 7.83, repro,
2017-02-12,-33.54, -17.44, -38.60, 1.63, 1.87, 7.82, repro,
2017-02-13,-37.98, -19.13, -38.39, 1.63, 1.85, 7.67, repro,
2017-02-14,-36.93, -14.44, -27.19, 1.60, 1.82, 7.59, repro,
2017-02-15,-39.19, -18.99, -44.00, 1.63, 1.84, 7.71, repro,
2017-02-16,-39.09, -14.01, -32.96, 1.60, 1.84, 7.62, repro,
2017-02-17,-37.38, -14.68, -41.67, 1.60, 1.85, 7.63, repro,
2017-02-18,-35.27, -19.95, -49.74, 1.63, 1.91, 7.89, repro,
2017-02-19,-38.08, -17.35, -38.88, 1.61, 1.83, 7.60, repro,
2017-02-20,-34.85, -13.59, -31.20, 1.61, 1.84, 7.68, repro,
2017-02-21,-35.99, -17.52, -52.35, 1.61, 1.84, 7.65, repro,
2017-02-22,-37.51, -15.27, -39.94, 1.62, 1.86, 7.72, repro,
2017-02-23,-38.21, -17.33, -32.92, 1.67, 1.88, 7.95, repro,
2017-02-24,-37.72, -18.46, -44.94, 1.64, 1.86, 7.90, repro,
2017-02-25,-35.81, -16.16, -41.53, 1.67, 1.89, 7.99, repro,
2017-02-26,-38.85, -16.32, -26.09, 1.62, 1.83, 7.68, repro,
2017-02-27,-35.45, -17.09, -32.96, 1.65, 1.90, 7.98, repro,
2017-02-28,-34.28, -18.21, -28.81, 1.62, 1.84, 7.78, repro,
2017-03-01,-33.25, -18.46, -39.20, 1.63, 1.88, 7.81, repro,
2017-03-02,-39.49, -26.22, -36.29, 1.64, 1.90, 7.87, repro,
2017-03-03,-34.90, -29.95, -37.63, 1.68, 1.88, 8.03, repro,
2017-03-04,-36.76, -24.12, -32.38, 1.67, 1.87, 7.92, repro,
2017-03-05,-33.53, -23.20, -47.16, 1.63, 1.85, 7.71, repro,
2017-03-06,-33.31, -24.38, -40.76, 1.70, 2.01, 8.25, repro,
2017-03-07,-32.54, -19.79, -40.96, 1.61, 1.85, 7.66, repro,
2017-03-08,-33.15, -19.19, -31.40, 1.65, 1.88, 7.87, repro,
2017-03-09,-34.42, -19.75, -43.94, 1.65, 1.89, 7.87, repro,
2017-03-10,-35.71, -17.59, -44.45, 1.64, 1.83, 7.70, repro,
2017-03-11,-36.47, -17.16, -47.33, 1.64, 1.86, 7.82, repro,
2017-03-12,-36.25, -20.12, -30.40, 1.64, 1.89, 7.79, repro,
2017-03-13,-36.11, -19.06, -37.86, 1.63, 1.87, 7.78, repro,
2017-03-14,-33.02, -19.16, -41.45, 1.62, 1.87, 7.77, repro,
2017-03-15,-37.69, -18.70, -36.51, 1.64, 1.85, 7.75, repro,
2017-03-16,-34.26, -16.13, -50.24, 1.63, 1.86, 7.82, repro,
2017-03-17,-33.00, -13.05, -39.85, 1.62, 1.85, 7.71, repro,
2017-03-18,-33.10, -17.92, -30.28, 1.67, 1.90, 7.97, repro,
2017-03-19,-36.50, -21.73, -42.70, 1.62, 1.85, 7.69, repro,
2017-03-20,-37.07, -15.35, -41.38, 1.60, 1.83, 7.56, repro,
2017-03-21,-35.19, -14.39, -37.22, 1.62, 1.86, 7.66, repro,
2017-03-22,-34.69, -12.88, -30.82, 1.62, 1.82, 7.61, repro,
2017-03-23,-35.18, -16.82, -38.65, 1.67, 1.89, 7.94, repro,
2017-03-24,-35.19, -14.78, -30.29, 1.67, 1.87, 7.95, repro,
2017-03-25,-35.12, -13.78, -35.94, 1.62, 1.84, 7.67, repro,
2017-03-26,-34.79, -16.71, -35.60, 1.64, 1.85, 7.74, repro,
2017-03-27,-36.23, -14.38, -27.76, 1.62, 1.87, 7.77, repro,
2017-03-28,-36.38, -14.40, -34.30, 1.60, 1.84, 7.62, repro,
2017-03-29,-37.42, -15.31, -37.10, 1.62, 1.86, 7.68, repro,
2017-03-30,-34.99, -13.65, -28.18, 1.61, 1.83, 7.58, repro,
2017-03-31,-37.85, -16.13, -26.95, 1.63, 1.87, 7.71, repro,
2017-04-01,-33.70, -19.39, -40.28, 1.66, 1.90, 7.97, repro,
2017-04-02,-36.14, -18.84, -38.60, 1.63, 1.89, 7.70, repro,
2017-04-03,-36.52, -16.85, -32.67, 1.62, 1.86, 7.63, repro,
2017-04-04,-38.35, -16.30, -39.99, 1.63, 1.89, 7.74, repro,
2017-04-05,-35.43, -19.41, -45.80, 1.65, 1.89, 7.80, repro,
2017-04-06,-35.04, -19.28, -45.04, 1.66, 1.94, 7.96, repro,
2017-04-07,-36.39, -16.04, -28.91, 1.67, 1.89, 7.87, repro,
2017-04-08,-33.95, -21.76, -30.97, 1.66, 1.88, 7.86, repro,
2017-04-09,-34.30, -19.13, -50.58, 1.64, 1.90, 7.81, repro,
2017-04-10,-34.50, -15.40, -38.20, 1.60, 1.83, 7.59, repro,
2017-04-11,-35.06, -15.84, -34.21, 1.61, 1.84, 7.65, repro,
2017-04-12,-36.65, -17.34, -30.12, 1.60, 1.87, 7.72, repro,
2017-04-13,-34.76, -14.15, -28.04, 1.63, 1.84, 7.70, repro,
2017-04-14,-34.29, -16.06, -37.72, 1.63, 1.86, 7.78, repro,
2017-04-15,-33.85, -15.67, -31.13, 1.61, 1.88, 7.72, repro,
2017-04-16,-35.23, -16.25, -31.88, 1.65, 1.88, 7.83, repro,
2017-04-17,-38.01, -16.67, -23.29, 1.64, 1.87, 7.90, repro,
2017-04-18,-36.12, -17.12, -36.68, 1.63, 1.85, 7.74, repro,
2017-04-19,-37.77, -14.55, -27.18, 1.71, 1.95, 8.31, repro,
2017-04-20,-35.88, -18.02, -10.84, 1.82, 1.97, 8.68, repro,
2017-04-21,-35.90, -14.18, -12.85, 1.73, 1.96, 8.30, repro,
2017-04-22,-38.27, -16.75, -24.19, 1.71, 1.93, 8.07, repro,
2017-04-23,-37.45, -18.41, -29.47, 1.63, 1.86, 7.78, repro,
2017-04-24,-36.38, -16.67, -19.13, 1.67, 1.91, 7.93, repro,
2017-04-25,-38.26, -13.90, -13.33, 1.65, 1.91, 7.88, repro,
2017-04-26,-37.47, -15.05, -25.11, 1.74, 2.04, 8.27, repro,
2017-04-27,-39.21, -15.54, -33.88, 1.76, 2.08, 8.23, repro,
2017-04-28,-32.81, -12.78, -29.21, 1.67, 1.93, 8.07, repro,
2017-04-29,-33.17, -15.92, -35.20, 1.65, 1.91, 7.91, repro,
2017-04-30,-34.83, -16.03, -20.89, 1.63, 1.86, 7.72, repro,
2017-05-01,-36.57, -14.85, -15.22, 1.64, 1.90, 7.94, repro,
2017-05-02,-35.47, -13.70, -29.94, 1.65, 1.88, 7.91, repro,
2017-05-03,-34.89, -18.78, -46.09, 1.67, 1.91, 8.04, repro,
2017-05-04,-35.81, -14.78, -23.31, 1.60, 1.85, 7.64, repro,
2017-05-05,-35.38, -13.52, -28.02, 1.68, 1.97, 8.02, repro,
2017-05-06,-33.19, -12.56, -27.26, 1.61, 1.85, 7.69, repro,
2017-05-07,-36.34, -12.85, -34.26, 1.63, 1.87, 7.82, repro,
2017-05-08,-33.54, -12.36, -20.81, 1.63, 1.86, 7.84, repro,
2017-05-09,-35.25, -10.76, -27.72, 1.62, 1.86, 7.74, repro,
2017-05-10,-35.51, -12.64, -31.14, 1.61, 1.89, 7.81, repro,
2017-05-11,-35.73, -14.08, -42.94, 1.70, 1.91, 8.01, repro,
2017-05-12,-34.73, -13.79, -29.46, 1.65, 1.91, 8.00, repro,
2017-05-13,-36.27, -9.33, -28.38, 1.68, 1.91, 8.11, repro,
2017-05-14,-40.06, -11.69, -22.42, 1.66, 1.87, 7.85, repro,
2017-05-15,-35.20, -13.41, -24.25, 1.63, 1.87, 7.81, repro,
2017-05-16,-36.36, -15.17, -27.60, 1.65, 1.88, 7.84, repro,
2017-05-17,-37.91, -11.13, -29.24, 1.67, 1.96, 7.90, repro,
2017-05-18,-32.80, -12.31, -33.69, 1.72, 1.97, 8.16, repro,
2017-05-19,-35.44, -14.14, -24.96, 1.68, 1.92, 7.97, repro,
2017-05-20,-33.66, -14.05, -38.26, 1.65, 1.89, 7.84, repro,
2017-05-21,-31.57, -13.48, -35.14, 1.66, 1.92, 7.92, repro,
2017-05-22,-35.48, -12.65, -35.12, 1.62, 1.88, 7.78, repro,
2017-05-23,-33.46, -11.65, -30.74, 1.64, 1.88, 7.87, repro,
2017-05-24,-36.05, -11.42, -32.34, 1.63, 1.87, 7.75, repro,
2017-05-25,-35.10, -11.28, -20.68, 1.64, 1.88, 7.79, repro,
2017-05-26,-33.82, -10.49, -39.13, 1.63, 1.89, 7.78, repro,
2017-05-27,-32.62, -15.48, -44.40, 1.63, 1.86, 7.76, repro,
2017-05-28,-36.58, -16.63, -40.90, 1.68, 1.93, 8.05, repro,
2017-05-29,-31.90, -12.09, -26.35, 1.65, 1.89, 7.78, repro,
2017-05-30,-32.78, -13.35, -40.15, 1.62, 1.86, 7.71, repro,
2017-05-31,-33.88, -13.42, -40.23, 1.60, 1.86, 7.64, repro,
2017-06-01,-33.62, -13.86, -46.98, 1.62, 1.87, 7.76, repro,
2017-06-02,-35.47, -12.31, -42.21, 1.65, 1.92, 7.87, repro,